,,Stat5,,Stat1,,Stat2,,Stat3,,Stat4,,Wind1,,Wind1,
time,status,PA1M_AVG,status,PR1M_SUM,status,RH1M_AVG,status,SR1M_AVG,status,TA1M_AVG,status,W1dAve1m,status,W1sAve1m,
2002-03-06, 00:00:00,VALID,919.177,VALID,0,VALID,99.3924,VALID,-0.0169808,VALID,19.4671,VALID,332,VALID,0,
2002-03-06, 00:01:00,VALID,919.181,VALID,0,VALID,99.3848,VALID,-0.0509425,VALID,19.4773,VALID,332,VALID,0,
2002-03-06, 00:02:00,VALID,919.171,VALID,0,VALID,99.3823,VALID,-0.0679233,VALID,19.5066,VALID,332,VALID,0,
2002-03-06, 00:03:00,VALID,919.157,VALID,0,VALID,99.3784,VALID,-0.0169808,VALID,19.5091,VALID,332,VALID,0,
2002-03-06, 00:04:00,VALID,919.153,VALID,0,VALID,99.381,VALID,-0.0339617,VALID,19.5285,VALID,332,VALID,0,
2002-03-06, 00:05:00,VALID,919.124,VALID,0,VALID,99.3848,VALID,-0.0509425,VALID,19.535,VALID,332,VALID,0,
2002-03-06, 00:06:00,VALID,919.101,VALID,0,VALID,99.3835,VALID,-0.0169808,VALID,19.5484,VALID,332,VALID,0,
2002-03-06, 00:07:00,VALID,919.103,VALID,0,VALID,99.3784,VALID,-0.0169808,VALID,19.5653,VALID,332,VALID,0,
2002-03-06, 00:08:00,VALID,919.105,VALID,0,VALID,99.3861,VALID,-0.0339617,VALID,19.5544,VALID,333,VALID,0,
2002-03-06, 00:09:00,VALID,919.117,VALID,0,VALID,99.3823,VALID,-0.0509425,VALID,19.5576,VALID,336,VALID,0,
2002-03-06, 00:10:00,VALID,919.121,VALID,0,VALID,99.3759,VALID,-0.0169808,VALID,19.574,VALID,1,VALID,0.0853041,
2002-03-06, 00:11:00,VALID,919.119,VALID,0,VALID,99.3772,VALID,0,VALID,19.5608,VALID,7,VALID,0.645148,
2002-03-06, 00:12:00,VALID,919.119,VALID,0,VALID,99.3695,VALID,-0.0169808,VALID,19.5385,VALID,13,VALID,0.773438,
2002-03-06, 00:13:00,VALID,919.107,VALID,0,VALID,99.3924,VALID,0,VALID,19.5124,VALID,15,VALID,0.969899,
2002-03-06, 00:14:00,VALID,919.107,VALID,0,VALID,99.3899,VALID,-0.0339617,VALID,19.4898,VALID,9,VALID,0.884718,
2002-03-06, 00:15:00,VALID,919.1,VALID,0,VALID,99.3899,VALID,-0.0169808,VALID,19.4898,VALID,7,VALID,0.678686,
2002-03-06, 00:16:00,VALID,919.104,VALID,0,VALID,99.3975,VALID,0,VALID,19.4671,VALID,2,VALID,0.613982,
2002-03-06, 00:17:00,VALID,919.097,VALID,0,VALID,99.3937,VALID,-0.0169808,VALID,19.4607,VALID,11,VALID,0.723684,
2002-03-06, 00:18:00,VALID,919.08,VALID,0,VALID,99.3873,VALID,-0.0509425,VALID,19.4249,VALID,10,VALID,0.629366,
2002-03-06, 00:19:00,VALID,919.067,VALID,0,VALID,99.395,VALID,-0.0169808,VALID,19.4189,VALID,3,VALID,0.607639,
2002-03-06, 00:20:00,VALID,919.056,VALID,0,VALID,99.3873,VALID,-0.0169808,VALID,19.4192,VALID,2,VALID,0.539299,
2002-03-06, 00:21:00,VALID,919.055,VALID,0,VALID,99.3975,VALID,-0.0169808,VALID,19.4157,VALID,7,VALID,0.40076,
2002-03-06, 00:22:00,VALID,919.045,VALID,0,VALID,99.4001,VALID,0,VALID,19.4058,VALID,18,VALID,0.492877,
2002-03-06, 00:23:00,VALID,919.06,VALID,0,VALID,99.3924,VALID,-0.0339617,VALID,19.4093,VALID,10,VALID,0.418074,
2002-03-06, 00:24:00,VALID,919.069,VALID,0,VALID,99.4039,VALID,-0.0169808,VALID,19.3996,VALID,13,VALID,0.286184,
2002-03-06, 00:25:00,VALID,919.067,VALID,0,VALID,99.4001,VALID,0.0339617,VALID,19.3919,VALID,41,VALID,0.391447,
2002-03-06, 00:26:00,VALID,919.075,VALID,0,VALID,99.4051,VALID,0.0849042,VALID,19.3847,VALID,48,VALID,0.397098,
2002-03-06, 00:27:00,VALID,919.095,VALID,0,VALID,99.4001,VALID,0.101885,VALID,19.3787,VALID,47,VALID,0.461149,
2002-03-06, 00:28:00,VALID,919.102,VALID,0,VALID,99.4064,VALID,0.0849042,VALID,19.369,VALID,15,VALID,0.37546,
2002-03-06, 00:29:00,VALID,919.112,VALID,0,VALID,99.4051,VALID,0.0849042,VALID,19.3626,VALID,10,VALID,0.25739,
2002-03-06, 00:30:00,VALID,919.097,VALID,0,VALID,99.409,VALID,0.0679233,VALID,19.3725,VALID,10,VALID,0.311279,
2002-03-06, 00:31:00,VALID,919.095,VALID,0,VALID,99.4026,VALID,0.101885,VALID,19.3623,VALID,4,VALID,0.330128,
2002-03-06, 00:32:00,VALID,919.093,VALID,0,VALID,99.4051,VALID,0.0849042,VALID,19.3464,VALID,340,VALID,0.323661,
2002-03-06, 00:33:00,VALID,919.075,VALID,0,VALID,99.4039,VALID,0.0679233,VALID,19.3596,VALID,316,VALID,0.24641,
2002-03-06, 00:34:00,VALID,919.069,VALID,0,VALID,99.4115,VALID,0.0509425,VALID,19.376,VALID,303,VALID,0.287454,
2002-03-06, 00:35:00,VALID,919.064,VALID,0,VALID,99.4026,VALID,0.0679233,VALID,19.4048,VALID,303,VALID,0.227618,
2002-03-06, 00:36:00,VALID,919.049,VALID,0,VALID,99.4013,VALID,0.0679233,VALID,19.3887,VALID,80,VALID,0.10074,
2002-03-06, 00:37:00,VALID,919.023,VALID,0,VALID,99.4077,VALID,0.0679233,VALID,19.3887,VALID,82,VALID,0,
2002-03-06, 00:38:00,VALID,919.021,VALID,0,VALID,99.4001,VALID,0.0849042,VALID,19.3986,VALID,82,VALID,0,
2002-03-06, 00:39:00,VALID,919,VALID,0,VALID,99.4026,VALID,0.0679233,VALID,19.3819,VALID,82,VALID,0,
2002-03-06, 00:40:00,VALID,919.002,VALID,0,VALID,99.409,VALID,-0.0169808,VALID,19.3866,VALID,82,VALID,0,
2002-03-06, 00:41:00,VALID,918.997,VALID,0,VALID,99.4064,VALID,-0.0509425,VALID,19.377,VALID,82,VALID,0,
2002-03-06, 00:42:00,VALID,919.007,VALID,0,VALID,99.4039,VALID,0,VALID,19.3573,VALID,82,VALID,0,
2002-03-06, 00:43:00,VALID,919.007,VALID,0,VALID,99.4064,VALID,-0.0509425,VALID,19.3511,VALID,82,VALID,0,
2002-03-06, 00:44:00,VALID,919.019,VALID,0,VALID,99.4115,VALID,0,VALID,19.3382,VALID,82,VALID,0,
2002-03-06, 00:45:00,VALID,919.005,VALID,0,VALID,99.409,VALID,-0.0339617,VALID,19.3223,VALID,82,VALID,0.0242821,
2002-03-06, 00:46:00,VALID,919,VALID,0,VALID,99.414,VALID,0,VALID,19.3094,VALID,82,VALID,0.0147059,
2002-03-06, 00:47:00,VALID,919.003,VALID,0,VALID,99.4166,VALID,0,VALID,19.3059,VALID,82,VALID,0,
2002-03-06, 00:48:00,VALID,919.005,VALID,0,VALID,99.4128,VALID,0,VALID,19.293,VALID,82,VALID,0,
2002-03-06, 00:49:00,VALID,918.994,VALID,0,VALID,99.4115,VALID,-0.0169808,VALID,19.2865,VALID,82,VALID,0,
2002-03-06, 00:50:00,VALID,919.006,VALID,0,VALID,99.4128,VALID,0,VALID,19.2768,VALID,82,VALID,0,
2002-03-06, 00:51:00,VALID,918.996,VALID,0,VALID,99.4128,VALID,-0.0339617,VALID,19.2639,VALID,27,VALID,0.149071,
2002-03-06, 00:52:00,VALID,918.987,VALID,0,VALID,99.4166,VALID,0,VALID,19.2868,VALID,301,VALID,0.170956,
2002-03-06, 00:53:00,VALID,918.972,VALID,0,VALID,99.409,VALID,-0.0169808,VALID,19.2957,VALID,300,VALID,0.179899,
2002-03-06, 00:54:00,VALID,918.961,VALID,0,VALID,99.4166,VALID,0,VALID,19.322,VALID,300,VALID,0.0993652,
2002-03-06, 00:55:00,VALID,918.941,VALID,0,VALID,99.4051,VALID,-0.0169808,VALID,19.3322,VALID,300,VALID,0.0610978,
2002-03-06, 00:56:00,VALID,918.924,VALID,0,VALID,99.4128,VALID,-0.0339617,VALID,19.293,VALID,300,VALID,0.00111607,
2002-03-06, 00:57:00,VALID,918.894,VALID,0,VALID,99.4051,VALID,-0.0509425,VALID,19.1995,VALID,300,VALID,0,
2002-03-06, 00:58:00,VALID,918.881,VALID,0,VALID,99.4217,VALID,-0.0339617,VALID,19.1479,VALID,300,VALID,0,
2002-03-06, 00:59:00,VALID,918.857,VALID,0,VALID,99.428,VALID,-0.0169808,VALID,19.1444,VALID,300,VALID,0,
2002-03-06, 01:00:00,VALID,918.847,VALID,0,VALID,99.4293,VALID,0,VALID,19.1384,VALID,300,VALID,0,
2002-03-06, 01:01:00,VALID,918.851,VALID,0,VALID,99.4229,VALID,-0.0849042,VALID,19.1218,VALID,300,VALID,0,
2002-03-06, 01:02:00,VALID,918.846,VALID,0,VALID,99.4293,VALID,0,VALID,19.1188,VALID,300,VALID,0,
2002-03-06, 01:03:00,VALID,918.848,VALID,0,VALID,99.4179,VALID,-0.0509425,VALID,19.1126,VALID,300,VALID,0,
2002-03-06, 01:04:00,VALID,918.832,VALID,0,VALID,99.4306,VALID,0,VALID,19.1218,VALID,300,VALID,0,
2002-03-06, 01:05:00,VALID,918.858,VALID,0,VALID,99.428,VALID,-0.0339617,VALID,19.1419,VALID,313,VALID,0.0777027,
2002-03-06, 01:06:00,VALID,918.85,VALID,0,VALID,99.4217,VALID,0,VALID,19.1186,VALID,17,VALID,0.335449,
2002-03-06, 01:07:00,VALID,918.856,VALID,0,VALID,99.4255,VALID,-0.0169808,VALID,19.0867,VALID,17,VALID,0.479567,
2002-03-06, 01:08:00,VALID,918.842,VALID,0,VALID,99.442,VALID,-0.0169808,VALID,19.0542,VALID,22,VALID,0.695982,
2002-03-06, 01:09:00,VALID,918.819,VALID,0,VALID,99.442,VALID,0,VALID,19.0482,VALID,23,VALID,0.432644,
2002-03-06, 01:10:00,VALID,918.8,VALID,0,VALID,99.4255,VALID,-0.0169808,VALID,19.0544,VALID,23,VALID,0.106388,
2002-03-06, 01:11:00,VALID,918.793,VALID,0,VALID,99.4255,VALID,-0.0509425,VALID,19.051,VALID,21,VALID,0,
2002-03-06, 01:12:00,VALID,918.768,VALID,0,VALID,99.4306,VALID,-0.0339617,VALID,19.0641,VALID,19,VALID,0,
2002-03-06, 01:13:00,VALID,918.759,VALID,0,VALID,99.4229,VALID,-0.0169808,VALID,19.0838,VALID,19,VALID,0,
2002-03-06, 01:14:00,VALID,918.743,VALID,0,VALID,99.4242,VALID,-0.0849042,VALID,19.1001,VALID,19,VALID,0,
2002-03-06, 01:15:00,VALID,918.735,VALID,0,VALID,99.4268,VALID,-0.0679233,VALID,19.1098,VALID,19,VALID,0,
2002-03-06, 01:16:00,VALID,918.717,VALID,0,VALID,99.428,VALID,-0.0339617,VALID,19.1225,VALID,19,VALID,0,
2002-03-06, 01:17:00,VALID,918.691,VALID,0,VALID,99.4268,VALID,-0.0339617,VALID,19.122,VALID,19,VALID,0,
2002-03-06, 01:18:00,VALID,918.669,VALID,0,VALID,99.4229,VALID,-0.0339617,VALID,19.1454,VALID,20,VALID,0.137451,
2002-03-06, 01:19:00,VALID,918.649,VALID,0,VALID,99.4268,VALID,-0.0169808,VALID,19.1449,VALID,20,VALID,0.291466,
2002-03-06, 01:20:00,VALID,918.608,VALID,0,VALID,99.4268,VALID,-0.0339617,VALID,19.1479,VALID,20,VALID,0.154018,
2002-03-06, 01:21:00,VALID,918.575,VALID,0,VALID,99.4204,VALID,-0.0339617,VALID,19.1647,VALID,20,VALID,0,
2002-03-06, 01:22:00,VALID,918.523,VALID,0,VALID,99.4204,VALID,-0.0509425,VALID,19.1643,VALID,120,VALID,0.247702,
2002-03-06, 01:23:00,VALID,918.481,VALID,0,VALID,99.4217,VALID,-0.0679233,VALID,19.161,VALID,151,VALID,0.398226,
2002-03-06, 01:24:00,VALID,918.426,VALID,0,VALID,99.4102,VALID,-0.0509425,VALID,19.1451,VALID,159,VALID,0.662007,
2002-03-06, 01:25:00,VALID,918.402,VALID,0,VALID,99.4255,VALID,-0.0849042,VALID,19.132,VALID,152,VALID,0.591488,
2002-03-06, 01:26:00,VALID,918.381,VALID,0,VALID,99.4255,VALID,-0.0679233,VALID,19.1165,VALID,161,VALID,0.58125,
2002-03-06, 01:27:00,VALID,918.355,VALID,0,VALID,99.4369,VALID,-0.0509425,VALID,19.1066,VALID,163,VALID,0.438345,
2002-03-06, 01:28:00,VALID,918.34,VALID,0,VALID,99.4306,VALID,-0.0679233,VALID,19.0905,VALID,144,VALID,0.340993,
2002-03-06, 01:29:00,VALID,918.332,VALID,0,VALID,99.4408,VALID,-0.0679233,VALID,19.0872,VALID,144,VALID,0.482264,
2002-03-06, 01:30:00,VALID,918.319,VALID,0,VALID,99.4331,VALID,-0.0339617,VALID,19.0768,VALID,130,VALID,0.405273,
2002-03-06, 01:31:00,VALID,918.294,VALID,0,VALID,99.4357,VALID,-0.0509425,VALID,19.081,VALID,122,VALID,0.309696,
2002-03-06, 01:32:00,VALID,918.271,VALID,0,VALID,99.4433,VALID,-0.0679233,VALID,19.0646,VALID,116,VALID,0.612946,
2002-03-06, 01:33:00,VALID,918.242,VALID,0,VALID,99.4471,VALID,-0.0339617,VALID,19.0579,VALID,122,VALID,0.974029,
2002-03-06, 01:34:00,VALID,918.216,VALID,0,VALID,99.4509,VALID,-0.0509425,VALID,19.0773,VALID,121,VALID,0.99954,
2002-03-06, 01:35:00,VALID,918.19,VALID,0,VALID,99.442,VALID,-0.0509425,VALID,19.0867,VALID,113,VALID,0.701225,
2002-03-06, 01:36:00,VALID,918.175,VALID,0,VALID,99.4369,VALID,-0.0679233,VALID,19.0644,VALID,88,VALID,0.694079,
2002-03-06, 01:37:00,VALID,918.168,VALID,0,VALID,99.4242,VALID,-0.0339617,VALID,19.0097,VALID,87,VALID,1.21258,
2002-03-06, 01:38:00,VALID,918.156,VALID,0,VALID,99.4458,VALID,-0.0849042,VALID,18.9776,VALID,88,VALID,1.16607,
2002-03-06, 01:39:00,VALID,918.159,VALID,0,VALID,99.4446,VALID,-0.0509425,VALID,18.9416,VALID,88,VALID,1.03695,
2002-03-06, 01:40:00,VALID,918.154,VALID,0,VALID,99.4484,VALID,-0.0169808,VALID,18.9001,VALID,95,VALID,0.841452,
2002-03-06, 01:41:00,VALID,918.136,VALID,0,VALID,99.4471,VALID,-0.0849042,VALID,18.8641,VALID,97,VALID,1.01943,
2002-03-06, 01:42:00,VALID,918.126,VALID,0,VALID,99.4547,VALID,-0.0679233,VALID,18.8579,VALID,102,VALID,1.16089,
2002-03-06, 01:43:00,VALID,918.088,VALID,0,VALID,99.4624,VALID,-0.0679233,VALID,18.8616,VALID,108,VALID,1.10056,
2002-03-06, 01:44:00,VALID,918.056,VALID,0,VALID,99.4713,VALID,-0.0339617,VALID,18.8644,VALID,118,VALID,0.723661,
2002-03-06, 01:45:00,VALID,918.006,VALID,0,VALID,99.4624,VALID,-0.0849042,VALID,18.8743,VALID,123,VALID,0.743032,
2002-03-06, 01:46:00,VALID,917.975,VALID,0,VALID,99.4687,VALID,-0.0849042,VALID,18.8743,VALID,121,VALID,0.853171,
2002-03-06, 01:47:00,VALID,917.955,VALID,0,VALID,99.4725,VALID,-0.0679233,VALID,18.8611,VALID,120,VALID,0.924198,
2002-03-06, 01:48:00,VALID,917.915,VALID,0,VALID,99.4636,VALID,-0.0679233,VALID,18.8551,VALID,118,VALID,0.486637,
2002-03-06, 01:49:00,VALID,917.895,VALID,0,VALID,99.4713,VALID,-0.0849042,VALID,18.8388,VALID,118,VALID,0.733073,
2002-03-06, 01:50:00,VALID,917.889,VALID,0,VALID,99.47,VALID,-0.0509425,VALID,18.8351,VALID,114,VALID,0.814509,
2002-03-06, 01:51:00,VALID,917.881,VALID,0,VALID,99.4624,VALID,-0.0509425,VALID,18.8485,VALID,109,VALID,0.753801,
2002-03-06, 01:52:00,VALID,917.864,VALID,0,VALID,99.4547,VALID,-0.0849042,VALID,18.8293,VALID,102,VALID,0.574678,
2002-03-06, 01:53:00,VALID,917.872,VALID,0,VALID,99.4802,VALID,-0.0679233,VALID,18.8035,VALID,102,VALID,0.615921,
2002-03-06, 01:54:00,VALID,917.867,VALID,0,VALID,99.4725,VALID,-0.0339617,VALID,18.8231,VALID,121,VALID,0.67749,
2002-03-06, 01:55:00,VALID,917.872,VALID,0,VALID,99.4738,VALID,-0.0679233,VALID,18.8323,VALID,126,VALID,0.593149,
2002-03-06, 01:56:00,VALID,917.874,VALID,0,VALID,99.4675,VALID,-0.101885,VALID,18.8584,VALID,122,VALID,0.735937,
2002-03-06, 01:57:00,VALID,917.871,VALID,0,VALID,99.4827,VALID,-0.0509425,VALID,18.8748,VALID,117,VALID,0.857475,
2002-03-06, 01:58:00,VALID,917.863,VALID,0,VALID,99.4853,VALID,-0.0509425,VALID,18.9071,VALID,114,VALID,1.04458,
2002-03-06, 01:59:00,VALID,917.853,VALID,0,VALID,99.4814,VALID,-0.0849042,VALID,18.9068,VALID,96,VALID,1.1041,
2002-03-06, 02:00:00,VALID,917.837,VALID,0,VALID,99.4776,VALID,-0.0509425,VALID,18.8971,VALID,103,VALID,1.23438,
2002-03-06, 02:01:00,VALID,917.841,VALID,0,VALID,99.4764,VALID,-0.0679233,VALID,18.8971,VALID,106,VALID,1.01007,
2002-03-06, 02:02:00,VALID,917.85,VALID,0,VALID,99.4764,VALID,-0.0339617,VALID,18.8969,VALID,105,VALID,0.817857,
2002-03-06, 02:03:00,VALID,917.853,VALID,0,VALID,99.4814,VALID,-0.0339617,VALID,18.8941,VALID,106,VALID,0.504434,
2002-03-06, 02:04:00,VALID,917.847,VALID,0,VALID,99.4776,VALID,-0.0679233,VALID,18.8741,VALID,123,VALID,0.494026,
2002-03-06, 02:05:00,VALID,917.847,VALID,0,VALID,99.4764,VALID,-0.0679233,VALID,18.8713,VALID,118,VALID,0.700169,
2002-03-06, 02:06:00,VALID,917.855,VALID,0,VALID,99.4764,VALID,-0.0509425,VALID,18.8547,VALID,107,VALID,0.776123,
2002-03-06, 02:07:00,VALID,917.851,VALID,0,VALID,99.4827,VALID,-0.0849042,VALID,18.8616,VALID,108,VALID,0.897436,
2002-03-06, 02:08:00,VALID,917.843,VALID,0,VALID,99.4865,VALID,-0.0679233,VALID,18.8648,VALID,125,VALID,0.633482,
2002-03-06, 02:09:00,VALID,917.841,VALID,0,VALID,99.4814,VALID,-0.101885,VALID,18.8748,VALID,124,VALID,0.728885,
2002-03-06, 02:10:00,VALID,917.813,VALID,0,VALID,99.4827,VALID,-0.0509425,VALID,18.8611,VALID,115,VALID,0.899357,
2002-03-06, 02:11:00,VALID,917.797,VALID,0,VALID,99.484,VALID,-0.0509425,VALID,18.8748,VALID,108,VALID,0.908995,
2002-03-06, 02:12:00,VALID,917.362,VALID,0,VALID,99.4865,VALID,-0.0679233,VALID,18.8745,VALID,109,VALID,0.832854,
2002-03-06, 02:13:00,VALID,917.766,VALID,0,VALID,99.4865,VALID,-0.0509425,VALID,18.8941,VALID,109,VALID,0.726768,
2002-03-06, 02:14:00,VALID,917.741,VALID,0,VALID,99.4865,VALID,-0.0339617,VALID,18.8937,VALID,117,VALID,0.451339,
2002-03-06, 02:15:00,VALID,917.736,VALID,0,VALID,99.4903,VALID,-0.0849042,VALID,18.8904,VALID,117,VALID,0.36212,
2002-03-06, 02:16:00,VALID,917.714,VALID,0,VALID,99.4954,VALID,-0.0339617,VALID,18.8969,VALID,126,VALID,0.5108,
2002-03-06, 02:17:00,VALID,917.713,VALID,0,VALID,99.4814,VALID,-0.0679233,VALID,18.9071,VALID,118,VALID,0.661318,
2002-03-06, 02:18:00,VALID,917.698,VALID,0,VALID,99.4954,VALID,-0.0679233,VALID,18.9165,VALID,119,VALID,0.760254,
2002-03-06, 02:19:00,VALID,917.689,VALID,0,VALID,99.4891,VALID,-0.0509425,VALID,18.9133,VALID,118,VALID,0.744191,
2002-03-06, 02:20:00,VALID,917.69,VALID,0,VALID,99.4878,VALID,-0.0339617,VALID,18.9001,VALID,119,VALID,0.750893,
2002-03-06, 02:21:00,VALID,917.682,VALID,0,VALID,99.4992,VALID,-0.0509425,VALID,18.8872,VALID,117,VALID,0.641681,
2002-03-06, 02:22:00,VALID,917.697,VALID,0,VALID,99.4916,VALID,-0.0509425,VALID,18.8904,VALID,124,VALID,0.676011,
2002-03-06, 02:23:00,VALID,917.685,VALID,0,VALID,99.5031,VALID,-0.0509425,VALID,18.9036,VALID,119,VALID,0.624155,
2002-03-06, 02:24:00,VALID,917.685,VALID,0,VALID,99.4903,VALID,-0.0509425,VALID,18.8974,VALID,113,VALID,0.759457,
2002-03-06, 02:25:00,VALID,917.672,VALID,0,VALID,99.4942,VALID,-0.0679233,VALID,18.9063,VALID,114,VALID,0.684416,
2002-03-06, 02:26:00,VALID,917.662,VALID,0,VALID,99.4903,VALID,0,VALID,18.9034,VALID,108,VALID,0.320313,
2002-03-06, 02:27:00,VALID,917.663,VALID,0,VALID,99.4853,VALID,-0.0339617,VALID,18.8547,VALID,108,VALID,0.0118243,
2002-03-06, 02:28:00,VALID,917.667,VALID,0,VALID,99.4954,VALID,-0.0679233,VALID,18.7998,VALID,108,VALID,0,
2002-03-06, 02:29:00,VALID,917.655,VALID,0,VALID,99.5081,VALID,-0.0339617,VALID,18.7804,VALID,108,VALID,0.0466639,
2002-03-06, 02:30:00,VALID,917.661,VALID,0,VALID,99.5094,VALID,-0.0339617,VALID,18.7677,VALID,52,VALID,0.246582,
2002-03-06, 02:31:00,VALID,917.639,VALID,0,VALID,99.5043,VALID,-0.0339617,VALID,18.7605,VALID,308,VALID,0.292668,
2002-03-06, 02:32:00,VALID,917.629,VALID,0,VALID,99.5069,VALID,-0.0509425,VALID,18.794,VALID,289,VALID,0.616295,
2002-03-06, 02:33:00,VALID,917.621,VALID,0,VALID,99.5043,VALID,-0.0679233,VALID,18.7772,VALID,283,VALID,0.440878,
2002-03-06, 02:34:00,VALID,917.612,VALID,0,VALID,99.5094,VALID,-0.0509425,VALID,18.7739,VALID,283,VALID,0.200597,
2002-03-06, 02:35:00,VALID,917.601,VALID,0,VALID,99.5069,VALID,-0.0509425,VALID,18.7843,VALID,283,VALID,0.0553209,
2002-03-06, 02:36:00,VALID,917.593,VALID,0,VALID,99.5018,VALID,-0.0509425,VALID,18.7744,VALID,283,VALID,0.0316612,
2002-03-06, 02:37:00,VALID,917.594,VALID,0,VALID,99.5056,VALID,-0.0679233,VALID,18.7811,VALID,283,VALID,0,
2002-03-06, 02:38:00,VALID,917.579,VALID,0,VALID,99.5005,VALID,-0.0509425,VALID,18.7744,VALID,283,VALID,0,
2002-03-06, 02:39:00,VALID,917.568,VALID,0,VALID,99.5069,VALID,-0.0849042,VALID,18.7843,VALID,283,VALID,0,
2002-03-06, 02:40:00,VALID,917.567,VALID,0,VALID,99.5069,VALID,0.0679233,VALID,18.7956,VALID,283,VALID,0,
2002-03-06, 02:41:00,VALID,917.546,VALID,0,VALID,99.5043,VALID,0.0509425,VALID,18.7917,VALID,283,VALID,0,
2002-03-06, 02:42:00,VALID,917.55,VALID,0,VALID,99.4942,VALID,0.0509425,VALID,18.7822,VALID,283,VALID,0.0583496,
2002-03-06, 02:43:00,VALID,917.526,VALID,0,VALID,99.4903,VALID,0.0849042,VALID,18.7435,VALID,251,VALID,0.296274,
2002-03-06, 02:44:00,VALID,917.516,VALID,0,VALID,99.498,VALID,0.0679233,VALID,18.7052,VALID,141,VALID,0.459375,
2002-03-06, 02:45:00,VALID,917.49,VALID,0,VALID,99.4992,VALID,0.0509425,VALID,18.66,VALID,141,VALID,0.789485,
2002-03-06, 02:46:00,VALID,917.466,VALID,0,VALID,99.5196,VALID,0.101885,VALID,18.6403,VALID,141,VALID,0.805377,
2002-03-06, 02:47:00,VALID,917.453,VALID,0,VALID,99.5094,VALID,0.0679233,VALID,18.6503,VALID,130,VALID,0.755068,
2002-03-06, 02:48:00,VALID,917.425,VALID,0,VALID,99.5094,VALID,0.0339617,VALID,18.6115,VALID,137,VALID,0.872738,
2002-03-06, 02:49:00,VALID,917.416,VALID,0,VALID,99.517,VALID,0.0679233,VALID,18.5725,VALID,141,VALID,0.808799,
2002-03-06, 02:50:00,VALID,917.394,VALID,0,VALID,99.5158,VALID,0.0849042,VALID,18.5693,VALID,127,VALID,0.61808,
2002-03-06, 02:51:00,VALID,917.37,VALID,0,VALID,99.5183,VALID,0.0849042,VALID,18.5788,VALID,125,VALID,0.876056,
2002-03-06, 02:52:00,VALID,917.361,VALID,0,VALID,99.5209,VALID,0.0849042,VALID,18.6309,VALID,127,VALID,0.951287,
2002-03-06, 02:53:00,VALID,917.347,VALID,0,VALID,99.5107,VALID,0.0679233,VALID,18.6535,VALID,140,VALID,0.820313,
2002-03-06, 02:54:00,VALID,917.338,VALID,0,VALID,99.5234,VALID,0.0679233,VALID,18.6498,VALID,140,VALID,0.588135,
2002-03-06, 02:55:00,VALID,917.313,VALID,0,VALID,99.5183,VALID,0.0339617,VALID,18.6699,VALID,133,VALID,0.660056,
2002-03-06, 02:56:00,VALID,917.305,VALID,0,VALID,99.5247,VALID,0.0509425,VALID,18.6793,VALID,137,VALID,0.828125,
2002-03-06, 02:57:00,VALID,917.291,VALID,0,VALID,99.5259,VALID,0.0169808,VALID,18.7153,VALID,135,VALID,0.778505,
2002-03-06, 02:58:00,VALID,917.283,VALID,0,VALID,99.5158,VALID,0,VALID,18.7248,VALID,126,VALID,0.682904,
2002-03-06, 02:59:00,VALID,917.283,VALID,0,VALID,99.5094,VALID,0.0509425,VALID,18.7377,VALID,130,VALID,0.642103,
2002-03-06, 03:00:00,VALID,917.267,VALID,0,VALID,99.5183,VALID,0.0339617,VALID,18.7442,VALID,134,VALID,0.52611,
2002-03-06, 03:01:00,VALID,917.248,VALID,0,VALID,99.5069,VALID,0,VALID,18.7476,VALID,123,VALID,0.689556,
2002-03-06, 03:02:00,VALID,917.249,VALID,0,VALID,99.512,VALID,0,VALID,18.7575,VALID,117,VALID,0.641741,
2002-03-06, 03:03:00,VALID,917.245,VALID,0,VALID,99.5209,VALID,0.0509425,VALID,18.7799,VALID,104,VALID,0.4356,
2002-03-06, 03:04:00,VALID,917.24,VALID,0,VALID,99.517,VALID,0.0169808,VALID,18.7702,VALID,110,VALID,0.203355,
2002-03-06, 03:05:00,VALID,917.239,VALID,0,VALID,99.5145,VALID,0,VALID,18.7695,VALID,110,VALID,0.0348395,
2002-03-06, 03:06:00,VALID,917.238,VALID,0,VALID,99.5196,VALID,0.0169808,VALID,18.7769,VALID,110,VALID,0,
2002-03-06, 03:07:00,VALID,917.223,VALID,0,VALID,99.5183,VALID,0.0509425,VALID,18.7702,VALID,110,VALID,0,
2002-03-06, 03:08:00,VALID,917.219,VALID,0,VALID,99.512,VALID,0,VALID,18.7638,VALID,110,VALID,0,
2002-03-06, 03:09:00,VALID,917.205,VALID,0,VALID,99.5094,VALID,0.0169808,VALID,18.7769,VALID,110,VALID,0,
2002-03-06, 03:10:00,VALID,917.191,VALID,0,VALID,99.5081,VALID,0.0509425,VALID,18.7767,VALID,110,VALID,0,
2002-03-06, 03:11:00,VALID,917.189,VALID,0,VALID,99.5196,VALID,0.0169808,VALID,18.7797,VALID,110,VALID,0.123944,
2002-03-06, 03:12:00,VALID,917.167,VALID,0,VALID,99.5094,VALID,0,VALID,18.7732,VALID,110,VALID,0.406661,
2002-03-06, 03:13:00,VALID,917.142,VALID,0,VALID,99.5145,VALID,0.0509425,VALID,18.773,VALID,110,VALID,0.364104,
2002-03-06, 03:14:00,VALID,917.136,VALID,0,VALID,99.5132,VALID,0.0679233,VALID,18.7603,VALID,110,VALID,0.351116,
2002-03-06, 03:15:00,VALID,917.124,VALID,0,VALID,99.5107,VALID,0.0339617,VALID,18.7474,VALID,110,VALID,0.3769,
2002-03-06, 03:16:00,VALID,917.11,VALID,0,VALID,99.5209,VALID,0.0509425,VALID,18.7312,VALID,104,VALID,0.596048,
2002-03-06, 03:17:00,VALID,917.088,VALID,0,VALID,99.5221,VALID,0.0169808,VALID,18.7183,VALID,96,VALID,0.708193,
2002-03-06, 03:18:00,VALID,917.071,VALID,0,VALID,99.5247,VALID,0.0849042,VALID,18.7149,VALID,92,VALID,0.618164,
2002-03-06, 03:19:00,VALID,917.058,VALID,0,VALID,99.5234,VALID,0.0509425,VALID,18.7086,VALID,87,VALID,0.624599,
2002-03-06, 03:20:00,VALID,917.032,VALID,0,VALID,99.5247,VALID,0.0679233,VALID,18.7119,VALID,80,VALID,0.563616,
2002-03-06, 03:21:00,VALID,917.019,VALID,0,VALID,99.5221,VALID,0.0339617,VALID,18.6895,VALID,71,VALID,0.679476,
2002-03-06, 03:22:00,VALID,917.003,VALID,0,VALID,99.5272,VALID,0.0509425,VALID,18.6634,VALID,64,VALID,0.704963,
2002-03-06, 03:23:00,VALID,916.992,VALID,0,VALID,99.5247,VALID,0.0339617,VALID,18.663,VALID,64,VALID,0.614443,
2002-03-06, 03:24:00,VALID,916.977,VALID,0,VALID,99.5196,VALID,0.0849042,VALID,18.6763,VALID,64,VALID,0.66509,
2002-03-06, 03:25:00,VALID,916.983,VALID,0,VALID,99.5272,VALID,-0.0339617,VALID,18.6646,VALID,68,VALID,0.678865,
2002-03-06, 03:26:00,VALID,916.979,VALID,0,VALID,99.5298,VALID,-0.0679233,VALID,18.6713,VALID,95,VALID,0.699554,
2002-03-06, 03:27:00,VALID,916.968,VALID,0,VALID,99.5259,VALID,-0.0679233,VALID,18.6611,VALID,136,VALID,0.84016,
2002-03-06, 03:28:00,VALID,916.961,VALID,0,VALID,99.5183,VALID,-0.0679233,VALID,18.6574,VALID,139,VALID,0.650735,
2002-03-06, 03:29:00,VALID,916.952,VALID,0,VALID,99.531,VALID,-0.0849042,VALID,18.6777,VALID,138,VALID,1.06398,
2002-03-06, 03:30:00,VALID,916.936,VALID,0,VALID,99.5348,VALID,-0.101885,VALID,18.72,VALID,147,VALID,1.16895,
2002-03-06, 03:31:00,VALID,916.926,VALID,0,VALID,99.5247,VALID,-0.0849042,VALID,18.7682,VALID,148,VALID,1.46855,
2002-03-06, 03:32:00,VALID,916.91,VALID,0,VALID,99.5221,VALID,-0.0509425,VALID,18.8261,VALID,151,VALID,1.20625,
2002-03-06, 03:33:00,VALID,916.877,VALID,0,VALID,99.5107,VALID,-0.0849042,VALID,18.8487,VALID,153,VALID,1.08256,